Location: Sangrey
(48.2845°N, 109.8206°W)
Time: 04:17:55
(UTC+00:00)

X-37B - Pass Details

Date: 03 December 2023
Orbit: 277 x 277 km, 45.0° (Epoch: 01 November)

Event Time Altitude Azimuth Distance (km) Brightness Sun altitude
Rises 00:30:48 0° 229° (SW) 1,908 5.6 -10.3°
Reaches altitude 10° 00:32:59 10° 210° (SSW) 1,098 3.7 -10.6°
Maximum altitude 00:34:50 19° 160° (SSE) 744 2.0 -10.9°
Enters shadow 00:36:17 13° 118° (ESE) 975 2.2 -11.1°
